| time (UTC) | temp F | wind direction | speed knots | gust knots | rain 1hr in | rain 24hr in | rain mn in | humidity % | barometer mb |
| 20260506144503 | 67 | 183 | 8.7 | 22.6 | 0.00 | 0.00 | 0.00 | 62 | 1000.8 |
| 20260506143002 | 66 | 225 | 12.2 | 16.5 | 0.00 | 0.00 | 0.00 | 63 | 1000.9 |
| 20260506141600 | 68 | 178 | 10.4 | 22.6 | 0.00 | 0.00 | 0.00 | 60 | 1000.9 |
| 20260506140059 | 68 | 181 | 8.7 | 22.6 | 0.00 | 0.00 | 0.00 | 60 | 1000.8 |
| 20260506134557 | 68 | 254 | 10.4 | 23.5 | 0.00 | 0.00 | 0.00 | 58 | 1001.2 |
| 20260506133057 | 69 | 220 | 11.3 | 20.0 | 0.00 | 0.00 | 0.00 | 56 | 1001.1 |
| 20260506131602 | 70 | 278 | 7.8 | 17.4 | 0.00 | 0.00 | 0.00 | 55 | 1000.9 |
| 20260506130126 | 71 | 170 | 9.6 | 18.2 | 0.00 | 0.00 | 0.00 | 56 | 1001.0 |
| 20260506124559 | 70 | 224 | 11.3 | 20.9 | 0.00 | 0.00 | 0.00 | 54 | 1001.2 |
| 20260506123054 | 71 | 165 | 7.8 | 14.8 | 0.00 | 0.00 | 0.00 | 53 | 1000.9 |
| 20260506121555 | 72 | 167 | 7.8 | 16.5 | 0.00 | 0.00 | 0.00 | 51 | 1001.2 |
| 20260506120100 | 72 | 138 | 7.8 | 13.9 | 0.00 | 0.00 | 0.00 | 53 | 1001.2 |
| 20260506114551 | 72 | 180 | 5.2 | 16.5 | 0.00 | 0.00 | 0.00 | 55 | 1001.2 |
| 20260506113055 | 72 | 193 | 6.1 | 16.5 | 0.00 | 0.00 | 0.00 | 55 | 1001.3 |
| 20260506111548 | 71 | 186 | 5.2 | 12.2 | 0.00 | 0.00 | 0.00 | 56 | 1001.6 |
| 20260506110054 | 71 | 184 | 7.0 | 13.0 | 0.00 | 0.00 | 0.00 | 54 | 1001.9 |
| 20260506104552 | 69 | 142 | 6.1 | 12.2 | 0.00 | 0.00 | 0.00 | 55 | 1002.1 |
| 20260506103050 | 69 | 170 | 4.3 | 10.4 | 0.00 | 0.00 | 0.00 | 57 | 1002.1 |
| 20260506101555 | 69 | 176 | 7.0 | 12.2 | 0.00 | 0.00 | 0.00 | 57 | 1002.1 |
| 20260506100101 | 66 | 171 | 7.0 | 10.4 | 0.00 | 0.00 | 0.00 | 61 | 1002.4 |
| 20260506094542 | 66 | 180 | 7.0 | 12.2 | 0.00 | 0.00 | 0.00 | 60 | 1002.4 |
| 20260506093045 | 67 | 194 | 7.8 | 13.9 | 0.00 | 0.00 | 0.00 | 57 | 1002.3 |
| 20260506091540 | 70 | 158 | 7.0 | 14.8 | 0.00 | 0.00 | 0.00 | 52 | 1001.9 |
| 20260506090138 | 70 | 151 | 7.0 | 13.9 | 0.00 | 0.00 | 0.00 | 53 | 1001.8 |
| 20260506084559 | 70 | 183 | 9.6 | 18.2 | 0.00 | 0.00 | 0.00 | 50 | 1002.0 |
| 20260506083039 | 71 | 171 | 5.2 | 13.0 | 0.00 | 0.00 | 0.00 | 50 | 1002.0 |
| 20260506081541 | 70 | 238 | 5.2 | 11.3 | 0.00 | 0.00 | 0.00 | 52 | 1001.8 |
| 20260506073036 | 65 | 175 | 0.9 | 5.2 | 0.00 | 0.00 | 0.00 | 61 | 1002.1 |
| 20260506071519 | 65 | 263 | 1.7 | 3.5 | 0.00 | 0.00 | 0.00 | 63 | 1002.2 |
| 20260506061506 | 57 | 5 | 0.9 | 3.5 | 0.00 | 0.00 | 0.00 | 75 | 1002.4 |
| 20260506044503 | 48 | 5 | 1.7 | 3.5 | 0.00 | 0.00 | 0.00 | 90 | 1002.3 |
| 20260506043110 | 48 | 355 | 0.9 | 3.5 | 0.00 | 0.00 | 0.00 | 90 | 1002.1 |
| 20260506041604 | 47 | 302 | 0.9 | 2.6 | 0.00 | 0.00 | 0.00 | 88 | 1002.1 |
| 20260506040057 | 48 | 326 | 0.9 | 4.3 | 0.00 | 0.00 | 0.00 | 88 | 1002.1 |
| 20260506034626 | 48 | 312 | 0.9 | 2.6 | 0.00 | 0.00 | 0.00 | 88 | 1002.1 |
| 20260506033101 | 47 | 355 | 0.0 | 2.6 | 0.00 | 0.00 | 0.00 | 88 | 1001.9 |
| 20260506031553 | 48 | 276 | 0.9 | 1.7 | 0.00 | 0.00 | 0.00 | 87 | 1001.9 |
| 20260506030050 | 48 | 92 | 1.7 | 5.2 | 0.00 | 0.00 | 0.00 | 87 | 1001.8 |
| 20260506024548 | 49 | 309 | 0.0 | 1.7 | 0.00 | 0.00 | 0.00 | 86 | 1001.8 |
| 20260506023105 | 49 | 295 | 1.7 | 2.6 | 0.00 | 0.00 | 0.00 | 85 | 1001.8 |
| 20260506021545 | 49 | 9 | 0.0 | 2.6 | 0.00 | 0.00 | 0.00 | 85 | 1001.8 |
| 20260506020045 | 50 | 5 | 0.9 | 3.5 | 0.00 | 0.00 | 0.00 | 85 | 1001.6 |
| 20260506014540 | 50 | 252 | 0.9 | 3.5 | 0.00 | 0.00 | 0.00 | 84 | 1001.6 |
| 20260506013040 | 50 | 316 | 0.9 | 2.6 | 0.00 | 0.00 | 0.00 | 82 | 1001.4 |
| 20260506011534 | 51 | 5 | 1.7 | 4.3 | 0.00 | 0.00 | 0.00 | 82 | 1001.3 |
| 20260506010032 | 52 | 5 | 0.0 | 3.5 | 0.00 | 0.00 | 0.00 | 81 | 1001.1 |
| 20260506004546 | 52 | 275 | 0.9 | 6.1 | 0.00 | 0.00 | 0.00 | 80 | 1001.1 |
| 20260506003038 | 53 | 287 | 0.0 | 3.5 | 0.00 | 0.00 | 0.00 | 78 | 1001.1 |
| 20260506001524 | 54 | 355 | 2.6 | 5.2 | 0.00 | 0.00 | 0.00 | 77 | 1000.9 |
| 20260506000025 | 55 | 26 | 0.0 | 4.3 | 0.00 | 0.00 | 0.00 | 75 | 1001.0 |
| 20260505234526 | 56 | 355 | 0.0 | 5.2 | 0.00 | 0.00 | 0.00 | 73 | 1001.1 |
| 20260505233018 | 57 | 325 | 0.0 | 6.1 | 0.00 | 0.00 | 0.00 | 71 | 1001.2 |
| 20260505231516 | 58 | 304 | 0.9 | 7.0 | 0.00 | 0.00 | 0.00 | 69 | 1001.2 |
| 20260505230012 | 59 | 317 | 3.5 | 7.0 | 0.00 | 0.00 | 0.00 | 67 | 1001.1 |
| 20260505224511 | 59 | 168 | 3.5 | 11.3 | 0.00 | 0.00 | 0.00 | 66 | 1000.9 |
| 20260505223009 | 59 | 229 | 5.2 | 9.6 | 0.00 | 0.00 | 0.00 | 67 | 1000.8 |
| 20260505221512 | 60 | 155 | 4.3 | 12.2 | 0.00 | 0.00 | 0.00 | 65 | 1000.9 |
| 20260505220108 | 57 | 168 | 6.1 | 11.3 | 0.00 | 0.00 | 0.00 | 71 | 1000.9 |
| 20260505214503 | 57 | 198 | 4.3 | 7.8 | 0.00 | 0.00 | 0.00 | 73 | 1001.2 |
| 20260505213002 | 57 | 167 | 1.7 | 4.3 | 0.00 | 0.00 | 0.00 | 72 | 1001.3 |
| 20260505211502 | 57 | 205 | 2.6 | 6.1 | 0.00 | 0.00 | 0.00 | 73 | 1001.3 |
| 20260505210101 | 58 | 171 | 1.7 | 6.1 | 0.00 | 0.00 | 0.00 | 71 | 1001.3 |
| 20260505204609 | 58 | 159 | 1.7 | 5.2 | 0.00 | 0.00 | 0.00 | 71 | 1001.6 |
| 20260505203100 | 58 | 131 | 1.7 | 7.0 | 0.00 | 0.00 | 0.00 | 71 | 1001.4 |
| 20260505201602 | 59 | 167 | 3.5 | 6.1 | 0.00 | 0.00 | 0.00 | 69 | 1001.5 |
| 20260505200103 | 59 | 155 | 2.6 | 5.2 | 0.00 | 0.00 | 0.00 | 66 | 1001.6 |
| 20260505194557 | 60 | 167 | 0.9 | 5.2 | 0.00 | 0.00 | 0.00 | 66 | 1001.5 |
| 20260505193059 | 60 | 174 | 2.6 | 7.0 | 0.00 | 0.00 | 0.00 | 65 | 1001.4 |
| 20260505191600 | 60 | 178 | 6.1 | 9.6 | 0.00 | 0.00 | 0.00 | 66 | 1001.3 |
| 20260505190056 | 60 | 162 | 3.5 | 7.8 | 0.00 | 0.00 | 0.00 | 66 | 1001.4 |
| 20260505184602 | 60 | 166 | 4.3 | 9.6 | 0.00 | 0.00 | 0.00 | 66 | 1001.4 |
| 20260505183054 | 60 | 157 | 5.2 | 10.4 | 0.00 | 0.00 | 0.00 | 65 | 1001.3 |
| 20260505181551 | 60 | 188 | 4.3 | 10.4 | 0.00 | 0.00 | 0.00 | 65 | 1001.2 |
| 20260505180054 | 61 | 171 | 5.2 | 12.2 | 0.00 | 0.00 | 0.00 | 64 | 1001.4 |
| 20260505174607 | 62 | 157 | 5.2 | 9.6 | 0.00 | 0.00 | 0.00 | 61 | 1001.4 |
| 20260505173047 | 63 | 149 | 6.1 | 12.2 | 0.00 | 0.00 | 0.00 | 60 | 1001.4 |
| 20260505171547 | 64 | 162 | 8.7 | 14.8 | 0.00 | 0.00 | 0.00 | 58 | 1001.6 |
| 20260505170107 | 64 | 182 | 7.8 | 13.9 | 0.00 | 0.00 | 0.00 | 57 | 1001.6 |
| 20260505164545 | 64 | 211 | 7.0 | 14.8 | 0.00 | 0.00 | 0.00 | 57 | 1001.6 |
| 20260505163045 | 64 | 202 | 7.8 | 13.9 | 0.00 | 0.00 | 0.00 | 56 | 1001.6 |
| 20260505161553 | 65 | 167 | 7.0 | 12.2 | 0.00 | 0.00 | 0.00 | 54 | 1001.6 |
| 20260505153052 | 66 | 150 | 6.1 | 17.4 | 0.00 | 0.00 | 0.00 | 53 | 1001.8 |
| 20260505151545 | 67 | 134 | 7.8 | 15.6 | 0.00 | 0.00 | 0.00 | 51 | 1001.6 |